Change the Weather History Date:

Thursday, January 12, 2012

  Actual Average Record
Temperature  
Mean Temperature 39 °F 41 °F  
Max Temperature 49 °F 51 °F 72 °F (2013)
Min Temperature 28 °F 32 °F -7 °F (1918)
Degree Days  
Heating Degree Days 26 24  
Month to date heating degree days 222 288  
Since 1 July heating degree days 1328 1469  
Cooling Degree Days 0 0  
Month to date cooling degree days 0 0  
Year to date cooling degree days 0 0  
Moisture  
Dew Point 34 °F    
Average Humidity 82    
Maximum Humidity 100    
Minimum Humidity 63    
Precipitation  
Precipitation 0.05 in 0.15 in 1.49 in (1989)
Month to date precipitation 3.52 1.91  
Year to date precipitation 3.52 1.91  
Snow  
Snow T in - - ()
Month to date snowfall T  
Since 1 July snowfall T  
Snow Depth 0.00 in    
Sea Level Pressure  
Sea Level Pressure 29.79 in    
Wind  
Wind Speed 13 mph (WSW)    
Max Wind Speed 29 mph    
Max Gust Speed 38 mph    
Visibility 7 miles    
Events Fog , Rain , Snow    
T = Trace of Precipitation, MM = Missing Value Source: NWS Daily Summary

Daily Weather History Graph

Daily Weather History Graph

Search for Another Location

Airport or City:

Trip Planner

Search our weather history database for the weather conditions in past years. The results will help you decide how hot, cold, wet, or windy it might be!

Date:

Astronomy

Jan. 12, 2012 Rise Set
Actual Time 6:54 AM CST 4:56 PM CST
Civil Twilight 6:27 AM CST 5:23 PM CST
Nautical Twilight 5:55 AM CST 5:55 PM CST
Astronomical Twilight 5:25 AM CST 6:25 PM CST
Moon 8:49 PM CST (1/12) 8:48 AM CST (1/12)
Length of Visible Light 10h 56m
Length of Day
10h 01m
Waning Gibbous, 87% of the Moon is Illuminated
Jan 12
Waning Gibbous
Jan 16
Last Quarter
Jan 23
New
Jan 30
First Quarter
Feb 7
Full

Hourly Weather History & Observations

Time (CST) Temp. Windchill Dew Point Humidity Pressure Visibility Wind Dir Wind Speed Gust Speed Precip Events Conditions
12:53 AM 48.0 °F - 48.0 °F 100% 29.70 in 4.0 mi SW 4.6 mph - 0.01 in Rain Light Rain
1:53 AM 48.0 °F - 48.0 °F 100% 29.70 in 10.0 mi SW 9.2 mph - 0.01 in   Overcast
2:43 AM 48.2 °F - 48.2 °F 100% 29.71 in 2.5 mi SW 9.2 mph - 0.00 in Rain Light Rain
2:47 AM 48.2 °F - 48.2 °F 100% 29.70 in 3.0 mi SW 10.4 mph - 0.00 in Rain Light Rain
2:53 AM 48.0 °F - 48.0 °F 100% 29.70 in 4.0 mi SW 10.4 mph - 0.00 in   Overcast
3:53 AM 48.0 °F - 48.0 °F 100% 29.71 in 3.0 mi SW 9.2 mph - 0.01 in   Overcast
4:50 AM 46.4 °F 42.4 °F 46.4 °F 100% 29.69 in 10.0 mi SW 8.1 mph - 0.01 in   Overcast
4:53 AM 46.9 °F - 46.0 °F 97% 29.69 in 10.0 mi SW 6.9 mph - 0.01 in   Overcast
5:53 AM 46.9 °F - 44.1 °F 90% 29.69 in 10.0 mi SW 11.5 mph - N/A   Overcast
6:53 AM 46.9 °F - 44.1 °F 90% 29.70 in 10.0 mi SW 3.5 mph - N/A   Overcast
7:38 AM 48.2 °F - 44.6 °F 87% 29.70 in 10.0 mi SSW 8.1 mph - N/A   Overcast
7:53 AM 48.0 °F - 44.1 °F 86% 29.70 in 10.0 mi SW 9.2 mph - N/A   Overcast
8:22 AM 48.2 °F - 44.6 °F 87% 29.70 in 9.0 mi SSW 8.1 mph - N/A   Overcast
8:53 AM 48.0 °F - 45.0 °F 89% 29.70 in 7.0 mi SW 8.1 mph - N/A   Overcast
9:53 AM 48.9 °F - 46.0 °F 90% 29.69 in 3.0 mi SW 11.5 mph - 0.00 in Rain Light Rain
10:04 AM 48.2 °F - 46.4 °F 93% 29.68 in 3.0 mi SW 11.5 mph - 0.00 in   Light Drizzle
10:38 AM 48.2 °F - 46.4 °F 93% 29.67 in 6.0 mi SW 13.8 mph - 0.00 in   Overcast
10:50 AM 46.4 °F 40.4 °F 42.8 °F 87% 29.67 in 5.0 mi West 13.8 mph 21.9 mph 0.00 in Rain Light Rain
10:53 AM 46.0 °F 40.2 °F 43.0 °F 89% 29.67 in 5.0 mi West 12.7 mph 21.9 mph 0.00 in Rain Light Rain
11:13 AM 46.4 °F 40.1 °F 42.8 °F 87% 29.67 in 6.0 mi West 15.0 mph 20.7 mph 0.00 in   Overcast
11:38 AM 44.6 °F 38.8 °F 39.2 °F 81% 29.67 in 7.0 mi West 11.5 mph 19.6 mph 0.00 in   Overcast
11:53 AM 45.0 °F 39.3 °F 39.9 °F 82% 29.66 in 7.0 mi West 11.5 mph 19.6 mph 0.00 in   Overcast
12:36 PM 42.8 °F 34.0 °F 37.4 °F 81% 29.68 in 7.0 mi West 20.7 mph 33.4 mph N/A   Overcast
12:53 PM 39.0 °F 28.3 °F 34.0 °F 82% 29.71 in 7.0 mi WNW 24.2 mph 35.7 mph N/A   Overcast
1:25 PM 35.6 °F 25.9 °F 32.0 °F 87% 29.74 in 3.0 mi West 16.1 mph 28.8 mph 0.00 in Rain Light Rain
1:43 PM 35.6 °F 24.5 °F 32.0 °F 87% 29.75 in 2.5 mi WNW 20.7 mph 31.1 mph 0.00 in Rain Light Rain
1:53 PM 35.1 °F 24.8 °F 30.9 °F 85% 29.76 in 3.0 mi West 17.3 mph 25.3 mph 0.00 in Rain Light Rain
2:53 PM 34.0 °F 22.1 °F 27.0 °F 75% 29.81 in 10.0 mi West 21.9 mph 38.0 mph 0.00 in Rain Light Rain
3:53 PM 32.0 °F 22.1 °F 25.0 °F 75% 29.86 in 8.0 mi West 13.8 mph 26.5 mph 0.00 in Snow Light Snow
4:05 PM 32.0 °F 21.2 °F 24.8 °F 75% 29.86 in 10.0 mi West 16.1 mph 27.6 mph 0.00 in   Overcast
4:53 PM 32.0 °F 20.5 °F 21.2 °F 64% 29.89 in 10.0 mi WNW 18.4 mph 26.5 mph N/A   Overcast
5:11 PM 30.2 °F 16.8 °F 23.0 °F 75% 29.91 in 1.2 mi West 23.0 mph 32.2 mph 0.00 in Snow Light Snow
5:18 PM 28.4 °F 16.2 °F 24.8 °F 86% 29.91 in 0.5 mi WNW 17.3 mph 32.2 mph 0.00 in Fog , Snow Light Snow
5:22 PM 28.4 °F 16.2 °F 21.2 °F 74% 29.90 in 1.0 mi WNW 17.3 mph 31.1 mph 0.00 in Snow Light Snow
5:25 PM 28.4 °F 16.2 °F 21.2 °F 74% 29.90 in 5.0 mi West 17.3 mph 26.5 mph 0.01 in Snow Light Snow
5:31 PM 28.4 °F 17.5 °F 21.2 °F 74% 29.91 in 10.0 mi West 13.8 mph 25.3 mph 0.01 in Rain Light Freezing Rain
5:38 PM 28.4 °F 19.7 °F 23.0 °F 80% 29.91 in 10.0 mi West 9.2 mph 20.7 mph 0.01 in Rain Light Freezing Rain
5:53 PM 30.0 °F 20.0 °F 23.0 °F 75% 29.92 in 10.0 mi West 12.7 mph - 0.01 in Rain Light Freezing Rain
6:05 PM 30.2 °F 18.9 °F 21.2 °F 69% 29.93 in 10.0 mi WNW 16.1 mph 20.7 mph 0.00 in   Overcast
6:53 PM 30.0 °F 17.5 °F 21.0 °F 69% 29.96 in 7.0 mi West 19.6 mph 28.8 mph 0.00 in Snow Light Snow
7:21 PM 28.4 °F 19.7 °F 21.2 °F 74% 29.96 in 9.0 mi West 9.2 mph - 0.00 in   Partly Cloudy
7:53 PM 28.9 °F 18.6 °F 21.9 °F 75% 29.98 in 10.0 mi West 12.7 mph 17.3 mph 0.00 in   Clear
8:53 PM 28.9 °F 16.9 °F 19.0 °F 67% 29.99 in 10.0 mi West 17.3 mph 25.3 mph N/A   Mostly Cloudy
9:53 PM 30.0 °F 20.5 °F 19.0 °F 64% 30.00 in 10.0 mi West 11.5 mph 23.0 mph N/A   Overcast
10:53 PM 28.0 °F 17.0 °F 17.1 °F 63% 30.02 in 10.0 mi West 13.8 mph 19.6 mph N/A   Clear
11:53 PM 28.0 °F 18.6 °F 17.1 °F 63% 30.03 in 10.0 mi West 10.4 mph - N/A   Mostly Cloudy